Regional Weather Roundup
Issued by NWS

Home | Current Version | Previous Version | Text Only | Print | Product List | Glossary Off
Versions: 1 2 3 4 5 6 7 8 9 10 11 12 13 14 15 16 17 18 19 20 21 22 23 24 25 26 27 28 29 30 31 32 33 34 35 36 37 38 39 40 41 42 43 44 45 46 47 48 49 50

511
ASUS45 KSLC 281510
RWRUT

UTAH REGIONAL WEATHER ROUNDUP
NATIONAL WEATHER SERVICE SALT LAKE CITY UT
900 AM MDT WED JUN 28 2017

UTZ001>011-023>025-281600-

NORTHERN UTAH

CITY           SKY/WX    TMP DP  RH WIND       PRES   REMARKS
BRIGHAM CITY   SUNNY     69  40  34 CALM      29.90F
DUGWAY         SUNNY     73  33  23 NW7       29.90R
HILL AFB       SUNNY     67  39  36 E12       29.92F
LOGAN          SUNNY     65  44  46 SW5       29.93F
OGDEN          SUNNY     68  47  46 NW6       29.91R
SALT LAKE CITY SUNNY     75  38  26 SE3       29.89S
TOOELE VALLEY  SUNNY     72  50  46 CALM      29.92R
WENDOVER         N/A     72  39  30 E12       29.91R
HEBER CITY     SUNNY     59  36  41 CALM      30.00S
WEST JORDAN    SUNNY     73  48  42 CALM      29.93R

$$

UTZ011>015-024>027-281600-

CENTRAL/NORTHEAST UTAH

CITY           SKY/WX    TMP DP  RH WIND       PRES   REMARKS
PROVO AIRPORT  SUNNY     69  42  37 SE9       29.93S
MOAB/CANYONLAN SUNNY     81  28  14 E6        29.87S
DELTA          SUNNY     73  27  17 SW3       29.93S
PRICE          SUNNY     75  27  17 S3        29.97S
ROOSEVELT      SUNNY     72  39  30 CALM      29.97S
VERNAL         SUNNY     73  32  22 CALM      29.95F

$$

UTZ013>016-019>022-027-281600-

SOUTHERN UTAH

CITY           SKY/WX    TMP DP  RH WIND       PRES   REMARKS
BRYCE CANYON   SUNNY     70  22  16 SE8       30.15S
CEDAR CITY     SUNNY     78  19  11 VRB6      29.99R
MILFORD        SUNNY     70  30  22 S5        29.95R
ST GEORGE      SUNNY     79  26  14 CALM      29.84R
HANKSVILLE     SUNNY     77  27  15 SE5       29.90F
BLANDING       SUNNY     73  20  13 S9        30.10S

$$

REGIONAL REPORTS     COLORADO/ARIZONA

CITY           SKY/WX    TMP DP  RH WIND       PRES   REMARKS
CRAIG, CO      SUNNY     62  40  44 CALM      30.03F
GRAND JUNCTION SUNNY     77  30  17 SE10      29.91R
RIFLE, CO      SUNNY     69  36  29 NE3       29.99S
MONTROSE, CO   SUNNY     73  31  21 CALM      29.99S
CORTEZ, CO     SUNNY     72  33  24 NE3       30.06R
COLORADO CITY    N/A     82  21  10 SE8       30.00S
PAGE, AZ       SUNNY     84  16   8 CALM      29.93R
GRAND CANYON   SUNNY     73  16  11 SW14G24   30.15R
KINGMAN, AZ    SUNNY     87  24  10 SW13      29.90R
FLAGSTAFF, AZ  SUNNY     67  24  19 SW9       30.20S

$$

REGIONAL REPORTS    NEVADA/IDAHO/WYOMING

CITY           SKY/WX    TMP DP  RH WIND       PRES   REMARKS
LAS VEGAS, NV  SUNNY     87  20   8 S3        29.78R
ELY, NY        SUNNY     64  22  20 S9        30.05S
ELKO, NV       SUNNY     70  31  23 SW10      29.98S
POCATELLO, ID  MOSUNNY   65  51  60 E7        29.94R
BURLEY, ID     SUNNY     64  52  64 VRB6      29.91R
FORT BRIDGER,    N/A     68  32  26 NW8       30.08S
EVANSTON, WY   SUNNY     60  37  42 VRB6      30.07R
ROCK SPRINGS,  SUNNY     61  35  37 VRB5      30.03F
KEMMERER, WY     N/A     61  34  36 NW7       30.08

$$




USA.gov is the U.S. government's official web portal to all federal, state and local government web resources and services.